Weather in Otvazhnoye

Russia / Republic of Crimea     45°01′59″N   35°12′56″E
temp.,
°C
wind,
m/s
gust,
m/s
humid.,
%
clouds,
%
prec.,
mm/h
press.,
hPa
HPBL,
m
1 march, mon
mon100:00+3nw479357 0.1 1024479
03:00+3nw369578 0.5 1024386
06:00+2wnw2584100 0.0 1024229
09:00+3nw587689 0.0 1025607
12:00+5nnw456049 0.0 10261070
15:00+5n446671 0.0 1026887
18:00+3n457885 0.0 1027571
21:00+1nnw348767 0.0 1029214
2 march, tue
tue200:00+1nnw348821 0.0 1030164
03:000nw348813 0.0 1030177
06:00+1nw348239 0.0 1030156
09:00+2nw347539 0.0 1031339
12:00+5nw34586 0.0 10301018
15:00+6wsw455623 0.0 10291157
18:00+5wsw577051 0.0 1027658
21:00+3wsw237863 0.0 1026189
3 march, wed
wed300:00+2wnw247456 0.0 1024143
03:00+2sw387650 0.0 1022268
06:00+3w5148448 0.0 1021505
09:00+4nw6108672 0.0 1022748
12:00+4nnw598493 0.2 1024816
15:00+6n796188 0.3 10241244
18:00+5n47623 0.0 1026669
21:00+3nw34702 0.0 1028222
4 march, thu
thu400:00+2nw23780 0.0 102889
03:00+1wnw22750 0.0 102854
06:00+1wnw11700 0.0 102843
09:00+4s23590 0.0 1027226
12:00+7ssw56602 0.0 10261045
15:00+7sw78649 0.0 10241051
18:00+5sw810743 0.0 1022714
21:00+5sw710794 0.0 1022640
5 march, fri
fri500:00+4ssw711757 0.0 1021666
03:00+4ssw711794 0.0 1020523
06:00+4ssw711821 0.0 1019445
09:00+6ssw710771 0.0 1019495
12:00+8ssw79701 0.0 1018540
15:00+9ssw69650 0.0 1017546
18:00+7ssw711790 0.0 1017459
21:00+6ssw7128613 0.0 1016442